#timestamp,LO_Frequency,Hit,StdDev 
1536296415.7,286047005.6,Y
1536296435.5,286047000.9,P
1536296455.3,286046999.8,N
1536296475.2,286047000.4,N
1536296495.0,286046998.2,N
1536296495.9,286046998.2,N
1536296515.7,286046999.1,N
1536296535.6,286046998.3,N
1536296555.4,286046999.1,N
1536296575.3,286046999.0,N
1536296595.1,286046998.3,N
1536296596.0,286046998.3,N
1536296615.8,286046999.6,N
1536296635.7,286046999.5,N
1536296655.5,286046996.5,N
1536296675.3,286047000.8,N
1536296695.2,286046999.2,N
1536296715.0,286046999.5,N
1536296715.9,286046999.5,N
1536296735.8,286046996.5,N
1536296755.6,286046999.5,N
1536296805.5,286047000.7,E
1536296815.4,286046998.5,N
1536296835.2,286046998.4,P
1536296855.1,286047001.0,P
1536296856.0,286047001.0,N
1536296875.8,286047000.9,N
1536296895.6,286047002.6,N
1536296915.5,286046999.9,N
1536296935.3,286047000.2,N
1536296955.1,286046998.4,N
1536296975.9,286046998.8,N
1536296995.7,286046998.9,N
1536297015.6,286047001.2,N
1536297035.4,286046999.0,N
1536297055.2,286046999.5,N
1536297075.1,286046998.5,N
1536297076.0,286046998.5,N
1536297095.8,286046998.7,N
1536297115.6,286046998.9,N
1536297135.5,286046996.5,N
1536297155.3,286046999.2,N
1536297175.2,286046996.5,N
1536297195.9,286046999.1,N
1536297215.7,286047000.8,N
1536297235.6,286047000.8,N
1536297255.4,286046998.6,N
1536297275.2,286046999.3,N
1536297295.1,286046996.6,N
1536297296.0,286046996.6,N
1536297315.8,286046999.6,N
1536297335.7,286046998.7,N
1536297355.5,286046996.7,N
1536297375.3,286047000.0,N
1536297395.2,286047002.4,N
1536297415.9,286047001.9,N
1536297435.7,286047001.4,N
1536297455.6,286047003.1,N
1536297475.4,286047002.1,N
1536297495.2,286047002.1,N
1536297515.1,286047000.3,N
1536297516.0,286047000.3,N
1536297535.8,286047004.0,N
1536297555.7,286047002.9,N
1536297575.5,286047003.0,N
1536297595.3,286047004.0,N
1536297615.2,286047006.0,N
1536297635.0,286047003.0,N
1536297635.9,286047003.0,N
1536297655.7,286047003.1,N
1536297675.6,286047003.1,N
1536297695.4,286047003.3,N
1536297715.3,286047002.9,N
1536297735.1,286047005.4,N
1536297736.0,286047005.4,N
1536297755.8,286047007.5,N
1536297775.7,286047006.6,N
1536297795.5,286047007.8,N
1536297815.4,286047008.9,Y
1536297835.2,286047007.1,P
1536297855.0,286047006.3,N
1536297855.9,286047006.3,P
1536297875.8,286047006.6,Y
1536297895.6,286047002.0,P
1536297915.4,286047002.8,N
1536297935.3,286047000.8,N
1536297955.1,286046999.7,N
1536297975.9,286047002.2,N
1536297995.7,286047000.5,N
1536298015.5,286046999.8,N
1536298035.4,286046998.7,N
1536298055.2,286046998.5,N
1536298075.1,286046998.4,N
1536298076.0,286046998.4,N
1536298095.8,286046998.7,N
1536298115.6,286046999.0,N
1536298135.5,286046998.6,N
1536298155.3,286047000.0,N
1536298175.1,286046999.0,N
1536298195.9,286047001.2,N
1536298215.7,286047000.7,N
1536298235.6,286047000.9,N
1536298255.4,286047002.1,N
1536298275.2,286047001.8,N
1536298295.1,286047001.5,N
1536298296.0,286047001.5,N
1536298315.8,286047004.1,N
1536298335.6,286047002.2,N
1536298355.5,286047001.3,N
1536298375.3,286047004.1,N
1536298395.2,286047002.1,N
1536298415.9,286047001.6,N
1536298435.7,286047002.6,N
1536298455.6,286046999.9,N
1536298475.4,286047000.4,N
1536298495.2,286047002.8,N
1536298515.1,286046998.1,N
1536298516.0,286046998.1,N
1536298535.8,286046996.5,N
1536298555.7,286046998.7,N
1536298575.5,286047000.7,N
1536298595.3,286047002.3,N
1536298615.2,286047000.1,N
1536298635.9,286046999.4,N
1536298655.7,286046998.1,N
1536298675.6,286046998.1,N
1536298695.4,286046998.1,N
1536298715.2,286047000.5,N
1536298735.1,286047002.7,N
1536298736.0,286047011.9,Y
1536298755.8,286047000.5,P
1536298775.7,286047000.7,P
1536298795.5,286046998.5,P
1536298815.3,286046998.7,N
1536298835.2,286046998.7,N
1536298855.0,286046999.0,N
1536298855.9,286046999.0,N
1536298875.8,286046997.3,N
1536298895.6,286046995.4,Y
1536298915.4,286046999.1,P
1536298935.3,286046998.9,P
1536298955.1,286046999.1,P
1536298975.8,286047001.1,Y
1536298995.7,286047000.0,P
1536299015.5,286047002.7,P
1536299035.4,286047002.6,N
1536299055.2,286047000.6,N
1536299075.0,286046996.6,N
1536299075.9,286046996.6,N
1536299095.8,286046999.4,N
1536299115.6,286046997.8,N
1536299135.4,286046993.8,N
1536299155.3,286046992.3,N
1536299175.1,286046990.6,N
1536299195.9,286046991.1,N
1536299215.7,286046989.6,N
1536299235.5,286046989.6,N
1536299255.4,286046988.5,N
1536299275.2,286046988.9,N
1536299295.0,286046988.2,N
1536299295.9,286046988.2,N
1536299315.8,286046988.0,N
1536299335.6,286046987.4,N
1536299355.4,286046988.0,N
1536299375.3,286046988.1,N
1536299395.1,286046989.3,N
1536299415.9,286046989.6,N
1536299435.7,286046987.6,N
1536299455.5,286046987.0,N
1536299475.4,286046988.3,N
1536299495.2,286046985.4,N
1536299515.0,286046985.7,N
1536299515.9,286046985.7,N
1536299535.8,286046986.2,N
1536299555.6,286046984.0,Y
1536299575.5,286046992.3,P
1536299595.3,286046990.6,P
1536299615.1,286046991.1,P
1536299635.9,286046990.8,Y
1536299655.7,286046998.3,P
1536299675.5,286046998.2,N
1536299695.4,286046998.9,N
1536299715.2,286046999.1,N
1536299735.1,286046999.0,N
1536299736.0,286046999.0,N
1536299755.8,286046996.6,N
1536299775.6,286046996.7,N
1536299795.5,286046994.9,N
1536299815.3,286046998.0,N
1536299835.1,286046999.2,N
1536299855.9,286046998.9,N
1536299875.7,286046998.5,N
1536299895.5,286046998.7,N
1536299915.4,286046997.7,N
1536299935.2,286046999.3,N
1536299955.1,286047001.1,N
1536299956.0,286047001.1,N
1536299975.8,286046998.4,N
1536299995.6,286046996.7,N
